EHI
0 0 0 0 0 0 0 0 0 0 0 0 0 0 0 0 0 0 0 0 0 0 0 0 0 0 0 0 0 0 0 0 0 0 0 0 0 0
0 0 0 0 0 0 0 0 0 0 0 0 0 0 0 0 0 0 0 0 0 0 0 0 0 0 0 0 0 0 0 0 0 0 0 0 0 0
0 0 0 0 0 0 0 0 0 0 0 0 0 0 0 0 0 0 0 0 0 0 0 0 0 0 0 0 0 0 0 0 0 0 0 0 0 0
0 0 0 0 0 0 0 0 0 0 0 0 0 0 0 0 0 0 0 0 0 0 0 0 0 0 0 0 0 0 0 0 0 0 0 0 0 0
0 0 0 0 0 0 0 0 0 0 0 0 0 0 0 0 0 0 0 0 0 0 0 0 0 0 0 0 0 0 0 0 0 0 0 0 0 0
0 0 0 0 0 0 0 0 0 0 0 0 0 0 0 0 0 0 0 0 0 0 0 0 0 0 0 0 0 0 0 0 0 0 0 0 0 0
0 0 0 0 0 0 0 0 0 0 0 0 0 0 0 0 0 0 0 0 0 0 0 0 0 0 0 0 0 0 0 0 0 0 0 0 0 0
0 0 0 0 0 0 0 0 0 0 0 0 0 0 0 0 0 0 0 0 0 0 0 0 0 0 0 0 0 0 0 0 0 0 0 0 0 0
0 0 0 0 0 0 0 0 0 0 0 0 0 0 0 0 0 0 0 0 0 0 0 0 0 0 0 0 0 0 0 0 0 0 0 0 0 0
0 0 0 0 0 0 0 0 0 0 0 0 0 0 0 0 0 0 0 0 0 0 0 0 0 0 0 0 0 0 0 0 0 0 0 0 0 0
0 0 0 0 0 0 0 0 0 0 0 0 0 0 0 0 0 0 0 0 0 0 0 0 0 0 0 0 0 0 0 0 0 0 0 0 0 0
0 0 0 0 0 0 0 0 0 0 0 0 0 0 0 0 0 0 0 0 0 0 0 0 0 0 0 0 0 0 0 0 0 0 0 0 0 0
0 0 0 0 0 0 0 0 0 0 0 0 0 0 0 0 0 0 0 0 0 0 0 0 0 0 0 0 0 0 0 0 0 0 0 0 0 0
0 0 0 0 0 0 0 0 0 0 0 0 0 0 0 0 0 0 0 0 0 0 0 0 0 0 0 0 0 0 0 0 0 0 0 0 0 0
0 0 0 0 0 0 0 0 0 0 0 0 0 0 0 0 0 0 0 0 0 0 0 0 0 0 0 0 0 0 0 0 0 0 0 0 0 0
0 0 0 0 0 0 0 0 0 0 0 0 0 0 0 0 0 0 0 0 0 0 0 0 0 0 0 0 0 0 0 0 0 0 0 0 0 0
0 0 0 0 0 0 0 0 0 0 0 0 0 0 0 0 0 0 0 0 0 0 0 0 0 0 0 0 0 0 0 0 0 0 0 0 0 0
0 0 0 0 0 0 0 0 0 0 0 0 0 0 0 0 0 0 0 0 0 0 0 0 0 0 0 0 0 0 0 0 0 0 0 0 0 0
0 0 0 0 0 0 0 0 0 0 0 0 0 0 0 0 0 0 0 0 0 0 0 0 0 0 0 0 0 0 0 0 0 0 0 0 0 0
0 0 0 0 0 0 0 0 0 0 0 0 0 0 0 0 0 0 0 0 0 0 0 0 0 0 0 0 0 0 0 0 0 0 0 0 0 0
0 0 0 0 0 0 0 0 0 0 0 0 0 0 0 0 0 0 0 0 0 0 0 0 0 0 0 0 0 0 0 0 0 0 0 0 0 0
0 0 0 0 0 0 0 0 0 0 0 0 0 0 0 0 0 0 0 0 0 0 0 0 0 0 0 0 0 0 0 0 0 0 0 0 0 0
0 0 0 0 0 0 0 0 0 0 0 0 0 0 0 0 0 0 0 0 0 0 0 0 0 0 0 0 0 0 0 0 0 0 0 0 0 0
Wind_Speed
5 5 4 3 3 3 3 4 4 3 2 1 1 1 0 1 1 2 2 4 5 5 5 5 5 5 5 5 5 5 5 5 5 5 6 6 6 6
4 5 4 3 3 3 3 3 3 4 3 1 0 1 1 2 4 3 4 6 6 6 6 5 5 5 5 5 5 5 5 5 5 5 5 5 6 6
4 5 4 3 3 3 3 3 3 3 3 1 1 1 2 3 3 3 4 4 4 7 6 6 6 6 6 5 5 5 5 5 5 5 6 6 6 6
5 4 4 3 4 3 3 3 3 3 4 4 1 1 2 2 3 4 4 4 4 8 8 8 7 7 6 6 5 5 5 5 5 6 6 6 6 6
4 4 4 4 4 3 3 3 3 3 3 4 3 1 2 2 3 4 5 4 5 6 8 9 9 8 7 6 5 5 5 5 5 5 5 6 6 7
3 3 4 5 5 4 3 3 3 4 4 4 3 2 2 2 2 3 3 4 4 5 7 8 9 10 10 9 7 6 5 5 5 5 6 6 6 6
2 2 2 3 3 3 3 4 5 4 4 4 3 2 2 2 2 2 3 3 4 3 4 4 4 5 5 7 8 8 7 6 5 5 5 5 5 5
4 4 4 4 7 8 8 7 6 5 4 4 3 3 2 2 2 3 3 3 2 2 3 3 3 4 3 4 6 6 6 6 5 5 5 5 6 6
5 5 4 5 7 7 10 12 11 10 7 5 5 3 3 2 3 4 3 3 3 1 1 2 2 3 3 4 7 7 7 7 7 6 6 6 7 7
5 5 6 6 7 8 10 11 10 9 7 6 6 5 4 3 3 4 5 5 4 3 2 2 2 2 3 3 6 8 8 7 8 7 7 7 8 8
6 6 7 7 11 13 12 12 11 9 13 16 15 13 12 11 7 5 4 4 3 3 3 2 2 2 2 3 4 7 8 7 7 8 8 8 8 7
6 6 9 9 11 12 10 11 11 8 8 9 11 11 10 11 11 6 4 4 3 2 2 2 2 2 2 2 3 4 5 6 7 8 8 9 8 6
6 5 6 12 12 12 10 9 11 9 8 8 7 7 7 7 7 6 5 4 4 3 1 1 1 1 1 2 3 3 4 4 4 5 6 8 9 7
6 6 7 12 12 12 10 12 13 10 7 6 6 6 5 5 5 5 6 5 4 3 2 1 1 1 1 2 2 3 4 4 4 4 6 7 7 7
7 11 12 12 12 10 13 13 9 6 6 6 6 4 3 3 3 4 5 5 5 4 3 2 1 1 0 1 2 3 4 4 4 5 6 6 6 6
8 12 14 13 10 10 9 7 6 5 5 5 5 4 3 3 4 3 3 3 4 4 4 4 3 1 1 2 2 3 4 4 5 6 6 6 5 5
9 7 6 6 6 6 6 5 5 5 5 4 4 4 4 4 4 3 3 3 3 3 4 4 4 3 2 2 2 3 5 5 5 6 6 6 6 6
9 7 6 6 6 5 5 5 4 4 4 4 4 4 4 4 3 3 3 3 3 3 3 4 4 4 3 1 2 3 4 5 6 6 5 5 7 7
7 6 6 5 5 5 4 4 4 3 3 4 4 4 4 3 3 3 3 2 2 2 3 3 3 3 4 5 4 2 4 6 6 6 6 5 7 8
5 6 5 5 5 5 4 4 4 4 3 3 3 3 3 3 3 2 2 2 2 2 3 3 3 3 3 4 5 5 5 5 6 6 6 6 6 8
5 5 5 5 4 4 4 4 4 4 4 3 3 3 3 3 2 2 2 2 2 2 3 4 4 6 3 3 4 5 6 6 6 6 7 6 7 7
5 5 4 4 4 4 4 4 4 3 3 3 3 2 2 2 2 2 1 1 1 2 3 3 4 3 2 3 5 7 7 8 7 8 7 5 5 7
4 4 4 4 4 4 4 4 4 3 3 2 2 2 2 2 1 1 1 1 1 2 3 3 3 3 3 3 5 6 9 9 7 7 7 7 8 10
Wind_Direction
197 194 197 201 194 196 184 174 168 189 223 249 296 350 25 105 95 116 122 113 123 129 130 125 121 116 109 104 101 92 80 70 60 52 45 37 28 19
190 188 198 199 196 192 194 191 182 178 193 200 221 3 36 105 92 101 98 95 97 109 111 111 114 113 108 101 93 87 79 72 64 54 42 31 22 15
193 191 202 195 189 187 183 180 181 168 179 180 87 45 60 78 81 91 90 84 78 85 97 100 103 101 98 94 89 82 73 62 52 41 31 22 16 12
191 189 201 195 194 188 184 187 185 178 169 172 137 77 66 80 85 81 76 79 81 76 85 86 85 84 84 85 84 78 68 54 42 33 26 21 17 13
186 189 195 186 194 190 183 184 179 165 153 151 146 112 82 80 82 75 68 57 74 75 75 71 72 73 69 68 69 67 60 50 42 35 32 27 19 11
178 188 190 188 191 181 171 168 152 137 129 129 128 115 98 86 98 98 81 60 58 62 65 66 66 68 63 59 60 59 54 49 45 37 28 20 14 7
133 133 137 137 144 145 149 150 146 138 134 130 127 111 105 110 114 112 109 92 60 46 66 59 55 56 53 51 54 53 51 45 40 36 25 12 3 358
123 108 98 96 98 96 97 102 114 133 142 134 129 128 128 122 110 119 123 122 98 24 65 58 49 52 43 47 43 46 45 36 26 19 12 3 353 344
123 117 104 95 98 101 89 81 76 83 105 127 124 124 130 137 131 116 100 93 93 40 71 64 35 43 30 36 30 31 27 19 13 7 359 351 344 338
97 104 107 98 99 108 100 86 73 62 74 84 94 90 88 96 111 121 116 101 88 48 38 73 21 20 23 15 16 18 16 12 7 2 356 348 342 336
84 87 100 101 102 106 103 98 90 79 76 83 82 79 77 76 83 96 98 98 78 42 21 60 24 355 3 4 3 6 2 360 357 352 349 344 339 332
87 83 88 101 106 106 108 109 105 98 93 84 73 65 64 62 60 63 81 91 90 69 19 39 24 4 3 350 342 345 350 350 347 343 341 340 336 332
101 91 89 100 101 99 101 104 112 110 97 90 82 71 62 57 53 53 57 79 88 78 42 67 42 17 356 321 325 328 335 335 336 336 336 334 331 327
112 106 102 102 99 97 94 100 103 101 98 93 86 78 71 62 55 56 60 63 67 80 56 61 60 0 338 330 325 322 324 328 330 328 329 326 322 320
105 108 105 101 97 91 94 99 101 101 103 99 93 84 72 68 69 66 59 62 60 55 51 43 48 19 313 314 315 314 318 321 326 328 324 322 321 322
102 101 96 90 87 90 91 87 84 91 99 99 96 84 77 75 66 62 62 53 56 38 27 27 14 352 324 305 299 312 319 315 321 328 324 315 314 315
116 105 99 98 96 92 87 82 86 93 93 94 97 93 87 80 67 58 61 58 56 32 9 2 2 355 299 283 312 324 325 322 321 326 321 319 318 322
113 112 112 111 110 109 107 98 90 95 99 104 102 100 98 92 80 64 61 64 57 30 11 357 354 360 3 352 258 304 321 322 321 319 315 314 316 323
109 116 118 117 115 115 114 110 104 99 102 106 105 103 102 95 85 75 70 64 48 24 6 359 1 4 0 355 340 287 306 319 321 320 319 313 308 314
108 119 123 122 122 122 121 116 112 108 103 103 104 107 107 102 94 84 72 59 40 18 3 359 358 349 336 328 318 307 296 302 317 320 319 313 303 298
116 118 123 126 125 125 124 123 122 121 118 116 114 114 111 106 99 90 76 56 39 12 353 345 331 318 291 282 308 325 321 304 289 297 309 313 322 325
125 127 128 130 132 133 133 129 125 124 125 122 124 121 117 115 115 103 80 48 13 345 326 323 328 330 331 332 330 325 323 325 319 306 288 273 308 322
136 137 139 141 141 139 138 139 139 139 141 140 138 137 137 131 123 115 93 23 342 339 336 334 339 338 330 320 319 318 323 328 330 330 329 319 301 288